User: anonymous   Login
Location: Caltech
(34.1382°N, 118.1253°W)
Time: 21:13:35
(UTC-07:00)
Language:

Uribyol 2 - Orbit

View from above orbital plane
View from above orbital plane
View from above satellite
View from above satellite

Ground track
Ground track

The orbit data is extracted from the following two-line orbital elements,

1 22828U 93061F   17114.85889439 +.00000051 +00000-0 +37102-4 0  9992
2 22828 098.7920 078.6779 0011013 086.4218 273.8223 14.30630936198086
Epoch (UTC): 24 April 2017 20:36:48
Eccentricity: 0.0011013
inclination: 98.7920°
perigee height: 782 km
apogee height: 797 km
right ascension of ascending node: 78.6779°
argument of perigee: 86.4218°
revolutions per day: 14.30630936
mean anomaly at epoch: 273.8223°
orbit number at epoch: 19808

The dashed part of the orbit path shows where the satellite is in the earth's shadow,  

DLR